{"data":{"norad_id":67022,"epoch":"2026-09-20T14:01:10.537536Z","epoch_age_seconds":74190,"freshness":"FRESH","line1":"1 67022U 25293V   26263.58414974  .00001473  00000+0  13118-3 0  9990","line2":"2 67022  70.0015 322.9565 0004132 269.3287  90.7398 14.98338228 44081","mean_motion":14.98338228,"eccentricity":0.0004132,"inclination_deg":70.0015,"raan_deg":322.9565,"arg_perigee_deg":269.3287,"mean_anomaly_deg":90.7398,"bstar":0.00013118,"rev_number":4408,"period_min":96.106471362086,"perigee_km":569.15863746063,"apogee_km":574.90225583854,"semimajor_km":6950.1674466496,"source":"CELESTRAK","updated_at":"2026-09-21T09:00:36.072252Z"}}